Simultaneous Nadir Overpasses (SNOs) Predictions

Prediction of SNOs between NOAA-15 and METOP-C Satellite Orbit:

Table of predicted SNOs for the next 14.0 days since TLE Epoch: 8/31/2024
Index Date (NOAA-15) Time (NOAA-15) Lat,Lon (NOAA-15) SZA (NOAA-15 ) Date (METOP-C) Time (METOP-C) Lat,Lon (METOP-C) SZA (METOP-C ) Distance(km) Time Diff (sec)
1 09/09/2024 05:45:02 -81.04, -48.30 102.12 09/09/2024 05:43:52 -81.02, -48.30 102.16 1.76 70
2 09/09/2024 06:35:31 81.04, 119.15 77.90 09/09/2024 06:34:33 81.03, 119.06 77.86 1.96 58
3 09/09/2024 07:26:01 -81.03, -73.39 102.08 09/09/2024 07:25:13 -81.03, -73.39 102.10 0.27 48
4 09/09/2024 08:16:30 81.03, 94.06 77.94 09/09/2024 08:15:54 81.04, 93.98 77.92 1.63 36
5 09/09/2024 09:07:01 -81.04, -98.84 102.07 09/09/2024 09:06:35 -81.03, -98.84 102.09 1.39 26
6 09/09/2024 09:57:30 81.04, 68.60 77.95 09/09/2024 09:57:16 81.03, 68.52 77.93 1.65 14
7 09/09/2024 10:48:00 -81.03,-123.93 102.03 09/09/2024 10:47:56 -81.04,-123.93 102.03 0.63 4
8 09/09/2024 11:38:29 81.03, 43.51 77.99 09/09/2024 11:38:37 81.04, 43.43 77.99 1.66 8
9 09/09/2024 12:29:00 -81.04,-149.38 102.02 09/09/2024 12:29:18 -81.04,-149.39 102.02 1.04 18
10 09/09/2024 13:19:29 81.04, 18.05 78.00 09/09/2024 13:19:59 81.04, 17.98 78.01 1.35 30
11 09/09/2024 14:09:59 -81.04,-174.47 101.98 09/09/2024 14:10:39 -81.05,-174.48 101.96 0.97 40
12 09/09/2024 15:00:28 81.03, -7.05 78.04 09/09/2024 15:01:20 81.05, -7.11 78.07 1.74 52
13 09/09/2024 15:50:59 -81.05, 160.08 101.97 09/09/2024 15:52:01 -81.04, 160.07 101.95 0.70 62



Historial Predications of SNOs between NOAA-15 and METOP-C
